| time (UTC) | temp C | wind direction | speed KPH | gust KPH | rain 1hr cm | rain 24hr cm | rain mn cm | humidity % | barometer mb |
| 20260507113304 | 13 | 304 | 1.6 | 8.0 | 0.00 | 0.79 | 0.30 | 77 | 1014.9 |
| 20260507112804 | 13 | 301 | 1.6 | 9.7 | 0.00 | 0.79 | 0.30 | 74 | 1014.9 |
| 20260507112306 | 14 | 316 | 3.2 | 12.9 | 0.00 | 0.79 | 0.30 | 75 | 1014.9 |
| 20260507111803 | 15 | 270 | 3.2 | 11.3 | 0.00 | 0.79 | 0.30 | 72 | 1014.9 |
| 20260507110804 | 14 | 295 | 0.0 | 3.2 | 0.00 | 0.79 | 0.30 | 74 | 1015.1 |
| 20260507110303 | 14 | 293 | 1.6 | 3.2 | 0.00 | 0.79 | 0.30 | 78 | 1015.1 |
| 20260507105803 | 14 | 340 | 1.6 | 3.2 | 0.00 | 0.79 | 0.30 | 76 | 1015.1 |
| 20260507105306 | 13 | 340 | 1.6 | 3.2 | 0.00 | 0.79 | 0.30 | 79 | 1015.1 |
| 20260507104803 | 13 | 53 | 1.6 | 4.8 | 0.00 | 0.79 | 0.30 | 76 | 1015.1 |
| 20260507102803 | 12 | 10 | 1.6 | 4.8 | 0.00 | 0.79 | 0.30 | 85 | 1015.1 |
| 20260507102306 | 12 | 299 | 1.6 | 3.2 | 0.00 | 0.79 | 0.30 | 85 | 1015.0 |
| 20260507101804 | 11 | 292 | 1.6 | 4.8 | 0.00 | 0.79 | 0.30 | 86 | 1015.0 |
| 20260507101303 | 12 | 317 | 0.0 | 8.0 | 0.00 | 0.79 | 0.30 | 87 | 1015.0 |
| 20260507100804 | 12 | 309 | 1.6 | 8.0 | 0.00 | 0.79 | 0.30 | 85 | 1015.0 |
| 20260507100303 | 12 | 5 | 0.0 | 1.6 | 0.00 | 0.79 | 0.30 | 85 | 1015.0 |
| 20260507095803 | 12 | 5 | 1.6 | 3.2 | 0.00 | 0.79 | 0.30 | 87 | 1015.0 |
| 20260507094304 | 11 | 310 | 3.2 | 8.0 | 0.00 | 0.79 | 0.30 | 86 | 1014.8 |
| 20260507092803 | 11 | 266 | 1.6 | 8.0 | 0.00 | 0.79 | 0.30 | 87 | 1014.7 |
| 20260507092307 | 11 | 273 | 1.6 | 8.0 | 0.00 | 0.79 | 0.30 | 88 | 1014.7 |
| 20260507091804 | 11 | 328 | 3.2 | 8.0 | 0.00 | 0.79 | 0.30 | 87 | 1014.7 |
| 20260507091303 | 11 | 311 | 1.6 | 8.0 | 0.00 | 0.79 | 0.30 | 86 | 1014.5 |
| 20260507090804 | 11 | 236 | 3.2 | 11.3 | 0.00 | 0.79 | 0.30 | 87 | 1014.5 |
| 20260507090303 | 11 | 341 | 3.2 | 4.8 | 0.00 | 0.79 | 0.30 | 85 | 1014.5 |
| 20260507085804 | 12 | 286 | 3.2 | 4.8 | 0.00 | 0.79 | 0.30 | 88 | 1014.4 |
| 20260507084804 | 11 | 299 | 1.6 | 8.0 | 0.03 | 0.79 | 0.30 | 90 | 1014.4 |
| 20260507083803 | 11 | 287 | 1.6 | 4.8 | 0.03 | 0.79 | 0.30 | 89 | 1014.2 |
| 20260507083304 | 11 | 315 | 1.6 | 4.8 | 0.03 | 0.79 | 0.30 | 92 | 1014.2 |
| 20260507082803 | 11 | 246 | 1.6 | 8.0 | 0.03 | 0.79 | 0.30 | 91 | 1014.2 |
| 20260507082306 | 11 | 217 | 1.6 | 3.2 | 0.05 | 0.79 | 0.30 | 94 | 1014.2 |
| 20260507081803 | 11 | 236 | 0.0 | 8.0 | 0.05 | 0.79 | 0.30 | 93 | 1014.2 |
| 20260507081303 | 11 | 346 | 1.6 | 3.2 | 0.05 | 0.79 | 0.30 | 94 | 1014.0 |
| 20260507080804 | 11 | 346 | 1.6 | 4.8 | 0.05 | 0.79 | 0.30 | 94 | 1014.0 |
| 20260507075306 | 10 | 246 | 1.6 | 4.8 | 0.05 | 0.79 | 0.30 | 93 | 1014.0 |
| 20260507074304 | 10 | 325 | 1.6 | 4.8 | 0.05 | 0.76 | 0.28 | 95 | 1013.9 |
| 20260507073804 | 10 | 276 | 1.6 | 4.8 | 0.05 | 0.76 | 0.28 | 96 | 1013.4 |
| 20260507073303 | 10 | 261 | 0.0 | 3.2 | 0.05 | 0.76 | 0.28 | 97 | 1013.4 |
| 20260507072804 | 10 | 252 | 1.6 | 3.2 | 0.05 | 0.76 | 0.28 | 97 | 1013.4 |
| 20260507072306 | 10 | 314 | 1.6 | 3.2 | 0.05 | 0.74 | 0.25 | 96 | 1013.4 |
| 20260507071803 | 10 | 314 | 0.0 | 3.2 | 0.05 | 0.74 | 0.25 | 96 | 1013.4 |
| 20260507071303 | 10 | 314 | 0.0 | 3.2 | 0.05 | 0.74 | 0.25 | 97 | 1013.4 |
| 20260507070804 | 10 | 314 | 1.6 | 4.8 | 0.05 | 0.74 | 0.25 | 96 | 1013.4 |
| 20260507070304 | 10 | 314 | 1.6 | 4.8 | 0.05 | 0.71 | 0.23 | 96 | 1013.4 |
| 20260507065804 | 10 | 314 | 1.6 | 3.2 | 0.05 | 0.71 | 0.23 | 97 | 1013.4 |
| 20260507064803 | 10 | 286 | 1.6 | 4.8 | 0.05 | 0.71 | 0.23 | 97 | 1013.2 |
| 20260507064303 | 10 | 252 | 1.6 | 3.2 | 0.05 | 0.71 | 0.23 | 97 | 1013.2 |
| 20260507063803 | 10 | 250 | 0.0 | 3.2 | 0.05 | 0.71 | 0.23 | 98 | 1013.1 |
| 20260507063303 | 10 | 272 | 0.0 | 4.8 | 0.05 | 0.71 | 0.23 | 99 | 1013.1 |
| 20260507062803 | 10 | 280 | 0.0 | 3.2 | 0.05 | 0.71 | 0.23 | 99 | 1013.1 |
| 20260507062306 | 10 | 280 | 1.6 | 3.2 | 0.05 | 0.71 | 0.23 | 99 | 1013.1 |
| 20260507061804 | 10 | 280 | 0.0 | 3.2 | 0.05 | 0.71 | 0.23 | 99 | 1013.1 |
| 20260507061303 | 10 | 280 | 0.0 | 3.2 | 0.03 | 0.69 | 0.20 | 99 | 1013.1 |
| 20260507060803 | 10 | 280 | 0.0 | 1.6 | 0.03 | 0.69 | 0.20 | 98 | 1012.9 |
| 20260507060304 | 10 | 280 | 0.0 | 1.6 | 0.03 | 0.69 | 0.20 | 98 | 1012.9 |
| 20260507055804 | 10 | 280 | 1.6 | 4.8 | 0.03 | 0.69 | 0.20 | 98 | 1012.8 |
| 20260507055306 | 10 | 265 | 1.6 | 4.8 | 0.03 | 0.69 | 0.20 | 98 | 1012.8 |
| 20260507054803 | 10 | 293 | 0.0 | 4.8 | 0.03 | 0.66 | 0.18 | 97 | 1012.8 |
| 20260507054303 | 10 | 293 | 1.6 | 4.8 | 0.03 | 0.66 | 0.18 | 97 | 1012.7 |
| 20260507053804 | 10 | 290 | 1.6 | 3.2 | 0.03 | 0.66 | 0.18 | 97 | 1012.4 |
| 20260507053303 | 10 | 291 | 0.0 | 1.6 | 0.03 | 0.66 | 0.18 | 98 | 1012.4 |
| 20260507052804 | 10 | 291 | 1.6 | 4.8 | 0.03 | 0.66 | 0.18 | 98 | 1012.4 |
| 20260507052306 | 10 | 303 | 1.6 | 8.0 | 0.03 | 0.66 | 0.18 | 98 | 1012.4 |
| 20260507051804 | 10 | 178 | 0.0 | 3.2 | 0.03 | 0.66 | 0.18 | 98 | 1012.4 |
| 20260507051304 | 10 | 271 | 0.0 | 3.2 | 0.05 | 0.66 | 0.18 | 98 | 1012.4 |
| 20260507050304 | 10 | 271 | 0.0 | 3.2 | 0.05 | 0.66 | 0.18 | 98 | 1012.2 |
| 20260507045804 | 10 | 271 | 0.0 | 4.8 | 0.05 | 0.66 | 0.18 | 98 | 1012.2 |
| 20260507045306 | 10 | 271 | 1.6 | 3.2 | 0.05 | 0.66 | 0.18 | 98 | 1012.2 |
| 20260507044803 | 10 | 271 | 0.0 | 1.6 | 0.05 | 0.64 | 0.15 | 98 | 1012.1 |
| 20260507044304 | 9 | 271 | 1.6 | 4.8 | 0.05 | 0.64 | 0.15 | 98 | 1011.8 |
| 20260507043303 | 9 | 271 | 0.0 | 4.8 | 0.05 | 0.64 | 0.15 | 98 | 1011.8 |
| 20260507042804 | 9 | 271 | 1.6 | 3.2 | 0.05 | 0.64 | 0.15 | 98 | 1011.8 |
| 20260507041803 | 9 | 271 | 0.0 | 3.2 | 0.05 | 0.64 | 0.15 | 98 | 1011.8 |
| 20260507041304 | 9 | 271 | 1.6 | 3.2 | 0.05 | 0.61 | 0.15 | 98 | 1011.7 |
| 20260507035803 | 9 | 305 | 1.6 | 3.2 | 0.03 | 0.61 | 0.13 | 98 | 1011.6 |
| 20260507035306 | 9 | 305 | 0.0 | 3.2 | 0.03 | 0.61 | 0.13 | 98 | 1011.6 |
| 20260507034804 | 9 | 305 | 0.0 | 4.8 | 0.03 | 0.61 | 0.13 | 98 | 1011.6 |
| 20260507034304 | 10 | 311 | 1.6 | 4.8 | 0.03 | 0.61 | 0.13 | 98 | 1011.5 |
| 20260507033303 | 10 | 278 | 1.6 | 4.8 | 0.05 | 0.61 | 0.13 | 97 | 1011.3 |
| 20260507032803 | 10 | 224 | 1.6 | 3.2 | 0.05 | 0.61 | 0.13 | 97 | 1011.3 |
| 20260507032306 | 9 | 306 | 1.6 | 4.8 | 0.05 | 0.61 | 0.13 | 97 | 1011.3 |
| 20260507031804 | 9 | 300 | 1.6 | 4.8 | 0.05 | 0.61 | 0.13 | 97 | 1011.3 |
| 20260507031303 | 9 | 313 | 0.0 | 1.6 | 0.03 | 0.58 | 0.10 | 98 | 1011.3 |
| 20260507030303 | 10 | 266 | 0.0 | 4.8 | 0.03 | 0.58 | 0.10 | 97 | 1011.2 |
| 20260507025804 | 10 | 266 | 0.0 | 3.2 | 0.03 | 0.58 | 0.10 | 98 | 1011.1 |
| 20260507025306 | 10 | 266 | 1.6 | 8.0 | 0.03 | 0.58 | 0.10 | 97 | 1011.1 |
| 20260507024803 | 10 | 130 | 1.6 | 3.2 | 0.03 | 0.58 | 0.10 | 98 | 1011.1 |
| 20260507024303 | 9 | 130 | 1.6 | 4.8 | 0.05 | 0.58 | 0.10 | 97 | 1011.0 |
| 20260507023803 | 10 | 92 | 0.0 | 1.6 | 0.03 | 0.56 | 0.08 | 99 | 1011.0 |
| 20260507023303 | 10 | 92 | 1.6 | 3.2 | 0.05 | 0.56 | 0.08 | 98 | 1011.0 |
| 20260507022803 | 10 | 92 | 0.0 | 4.8 | 0.05 | 0.56 | 0.08 | 98 | 1011.0 |
| 20260507022306 | 10 | 92 | 0.0 | 1.6 | 0.05 | 0.56 | 0.08 | 98 | 1011.0 |
| 20260507021803 | 10 | 92 | 0.0 | 3.2 | 0.05 | 0.56 | 0.08 | 98 | 1010.9 |
| 20260507021303 | 10 | 92 | 0.0 | 3.2 | 0.05 | 0.56 | 0.08 | 97 | 1010.9 |
| 20260507020803 | 10 | 10 | 1.6 | 3.2 | 0.05 | 0.56 | 0.08 | 98 | 1010.8 |
| 20260507020303 | 10 | 108 | 1.6 | 3.2 | 0.08 | 0.56 | 0.08 | 98 | 1010.7 |
| 20260507015804 | 10 | 108 | 0.0 | 1.6 | 0.08 | 0.56 | 0.08 | 98 | 1010.7 |
| 20260507015306 | 10 | 110 | 1.6 | 4.8 | 0.08 | 0.56 | 0.08 | 98 | 1010.7 |
| 20260507014819 | 10 | 153 | 0.0 | 1.6 | 0.08 | 0.56 | 0.08 | 98 | 1010.6 |
| 20260507014318 | 10 | 153 | 1.6 | 3.2 | 0.05 | 0.53 | 0.05 | 98 | 1010.6 |
| 20260507013803 | 10 | 61 | 0.0 | 3.2 | 0.05 | 0.53 | 0.05 | 98 | 1010.6 |
| 20260507012804 | 10 | 61 | 1.6 | 3.2 | 0.05 | 0.51 | 0.05 | 99 | 1010.6 |
| 20260507012306 | 10 | 61 | 0.0 | 1.6 | 0.05 | 0.51 | 0.05 | 98 | 1010.5 |
| 20260507011804 | 10 | 61 | 0.0 | 1.6 | 0.05 | 0.51 | 0.05 | 98 | 1010.5 |
| 20260507011304 | 10 | 61 | 0.0 | 1.6 | 0.03 | 0.51 | 0.03 | 98 | 1010.5 |
| 20260507010804 | 10 | 61 | 0.0 | 1.6 | 0.03 | 0.51 | 0.03 | 98 | 1010.5 |
| 20260507010304 | 10 | 61 | 0.0 | 1.6 | 0.00 | 0.48 | 0.00 | 98 | 1010.5 |
| 20260507004804 | 10 | 82 | 0.0 | 1.6 | 0.00 | 0.51 | 0.00 | 97 | 1010.4 |
| 20260507004304 | 10 | 82 | 1.6 | 8.0 | 0.00 | 0.51 | 0.00 | 96 | 1010.4 |
| 20260507002306 | 10 | 154 | 1.6 | 4.8 | 0.00 | 0.51 | 0.00 | 96 | 1010.4 |
| 20260507001803 | 10 | 249 | 0.0 | 1.6 | 0.00 | 0.51 | 0.00 | 97 | 1010.4 |
| 20260507001304 | 10 | 242 | 1.6 | 4.8 | 0.00 | 0.51 | 0.00 | 96 | 1010.4 |
| 20260507000306 | 10 | 277 | 0.0 | 0.0 | 0.00 | 0.51 | 0.00 | 96 | 1010.4 |
| 20260506235803 | 10 | 277 | 0.0 | 0.0 | 0.00 | 0.51 | 0.00 | 96 | 1010.4 |
| 20260506235306 | 10 | 277 | 1.6 | 8.0 | 0.00 | 0.51 | 0.00 | 95 | 1010.4 |
| 20260506234803 | 10 | 220 | 0.0 | 3.2 | 0.00 | 0.51 | 0.00 | 95 | 1010.4 |
| 20260506233803 | 10 | 261 | 0.0 | 1.6 | 0.00 | 0.51 | 0.00 | 96 | 1010.4 |
| 20260506233304 | 10 | 261 | 0.0 | 0.0 | 0.00 | 0.51 | 0.00 | 96 | 1010.4 |
| 20260506232306 | 10 | 261 | 0.0 | 3.2 | 0.00 | 0.51 | 0.00 | 95 | 1010.5 |
| 20260506231804 | 10 | 261 | 1.6 | 8.0 | 0.00 | 0.51 | 0.00 | 93 | 1010.5 |
| 20260506231303 | 10 | 298 | 1.6 | 4.8 | 0.00 | 0.51 | 0.00 | 94 | 1010.5 |
| 20260506230803 | 10 | 236 | 0.0 | 3.2 | 0.00 | 0.51 | 0.00 | 94 | 1010.5 |
| 20260506230304 | 10 | 270 | 1.6 | 4.8 | 0.00 | 0.51 | 0.00 | 94 | 1010.5 |
| 20260506225803 | 10 | 315 | 1.6 | 8.0 | 0.00 | 0.51 | 0.00 | 94 | 1010.4 |
| 20260506225305 | 10 | 304 | 1.6 | 8.0 | 0.00 | 0.51 | 0.00 | 94 | 1010.4 |
| 20260506224803 | 10 | 206 | 1.6 | 4.8 | 0.00 | 0.51 | 0.00 | 95 | 1010.3 |
| 20260506224304 | 10 | 173 | 1.6 | 1.6 | 0.00 | 0.51 | 0.00 | 95 | 1010.3 |
| 20260506223803 | 10 | 170 | 0.0 | 1.6 | 0.00 | 0.51 | 0.00 | 95 | 1010.3 |
| 20260506223304 | 10 | 162 | 1.6 | 8.0 | 0.00 | 0.51 | 0.00 | 95 | 1010.3 |
| 20260506222804 | 10 | 312 | 3.2 | 4.8 | 0.00 | 0.51 | 0.00 | 95 | 1010.3 |
| 20260506222306 | 10 | 12 | 0.0 | 1.6 | 0.00 | 0.51 | 0.00 | 97 | 1010.3 |
| 20260506221818 | 10 | 12 | 0.0 | 0.0 | 0.00 | 0.51 | 0.00 | 97 | 1010.3 |
| 20260506221304 | 10 | 12 | 0.0 | 1.6 | 0.00 | 0.51 | 0.00 | 97 | 1010.1 |
| 20260506220810 | 10 | 12 | 0.0 | 4.8 | 0.00 | 0.51 | 0.00 | 96 | 1010.1 |
| 20260506220305 | 10 | 277 | 1.6 | 4.8 | 0.00 | 0.51 | 0.00 | 95 | 1010.1 |
| 20260506215803 | 10 | 317 | 1.6 | 3.2 | 0.00 | 0.51 | 0.51 | 96 | 1010.1 |
| 20260506215306 | 10 | 317 | 0.0 | 4.8 | 0.00 | 0.51 | 0.51 | 95 | 1010.1 |
| 20260506214803 | 10 | 186 | 0.0 | 1.6 | 0.00 | 0.51 | 0.51 | 95 | 1010.0 |
| 20260506212803 | 10 | 159 | 0.0 | 3.2 | 0.03 | 0.51 | 0.51 | 96 | 1009.6 |
| 20260506212306 | 10 | 159 | 0.0 | 3.2 | 0.03 | 0.51 | 0.51 | 96 | 1009.6 |
| 20260506211304 | 11 | 195 | 1.6 | 3.2 | 0.03 | 0.51 | 0.51 | 95 | 1009.6 |
| 20260506210304 | 11 | 279 | 0.0 | 3.2 | 0.03 | 0.51 | 0.51 | 96 | 1009.3 |
| 20260506205804 | 11 | 43 | 1.6 | 3.2 | 0.03 | 0.51 | 0.51 | 95 | 1009.3 |
| 20260506205306 | 11 | 42 | 1.6 | 4.8 | 0.03 | 0.51 | 0.51 | 97 | 1009.3 |
| 20260506204804 | 11 | 320 | 1.6 | 4.8 | 0.03 | 0.51 | 0.51 | 96 | 1009.3 |
| 20260506203303 | 10 | 128 | 1.6 | 8.0 | 0.00 | 0.48 | 0.48 | 96 | 1009.3 |
| 20260506202306 | 10 | 302 | 0.0 | 1.6 | 0.00 | 0.48 | 0.48 | 96 | 1009.3 |
| 20260506201304 | 10 | 302 | 1.6 | 3.2 | 0.03 | 0.48 | 0.48 | 97 | 1009.3 |
| 20260506200803 | 10 | 302 | 1.6 | 3.2 | 0.03 | 0.48 | 0.48 | 97 | 1009.3 |
| 20260506200304 | 10 | 302 | 0.0 | 3.2 | 0.05 | 0.48 | 0.48 | 98 | 1009.3 |
| 20260506195306 | 10 | 277 | 1.6 | 4.8 | 0.05 | 0.48 | 0.48 | 97 | 1009.3 |
| 20260506194803 | 10 | 342 | 0.0 | 1.6 | 0.05 | 0.48 | 0.48 | 97 | 1009.3 |
| 20260506194303 | 10 | 342 | 0.0 | 3.2 | 0.05 | 0.48 | 0.48 | 97 | 1009.3 |
| 20260506193804 | 10 | 55 | 1.6 | 3.2 | 0.08 | 0.48 | 0.48 | 97 | 1009.3 |
| 20260506193304 | 10 | 344 | 1.6 | 3.2 | 0.10 | 0.48 | 0.48 | 96 | 1008.8 |
| 20260506192803 | 10 | 344 | 0.0 | 3.2 | 0.10 | 0.48 | 0.48 | 96 | 1008.8 |
| 20260506192305 | 10 | 319 | 0.0 | 4.8 | 0.13 | 0.48 | 0.48 | 97 | 1008.8 |
| 20260506191804 | 10 | 328 | 0.0 | 3.2 | 0.10 | 0.46 | 0.46 | 98 | 1008.8 |
| 20260506190803 | 11 | 329 | 1.6 | 4.8 | 0.13 | 0.46 | 0.46 | 97 | 1008.6 |
| 20260506190304 | 11 | 282 | 1.6 | 8.0 | 0.10 | 0.43 | 0.43 | 97 | 1008.4 |
| 20260506185804 | 11 | 291 | 1.6 | 8.0 | 0.10 | 0.43 | 0.43 | 97 | 1008.4 |
| 20260506185306 | 11 | 136 | 3.2 | 8.0 | 0.08 | 0.43 | 0.43 | 97 | 1008.4 |
| 20260506184804 | 11 | 161 | 3.2 | 8.0 | 0.10 | 0.43 | 0.43 | 97 | 1008.3 |
| 20260506184303 | 11 | 59 | 1.6 | 4.8 | 0.10 | 0.43 | 0.43 | 96 | 1008.3 |
| 20260506183304 | 11 | 61 | 1.6 | 4.8 | 0.05 | 0.38 | 0.38 | 96 | 1008.2 |
| 20260506182804 | 11 | 61 | 1.6 | 8.0 | 0.05 | 0.38 | 0.38 | 97 | 1008.1 |
| 20260506182306 | 11 | 182 | 1.6 | 3.2 | 0.05 | 0.36 | 0.36 | 97 | 1008.1 |
| 20260506181803 | 11 | 321 | 1.6 | 9.7 | 0.05 | 0.36 | 0.36 | 97 | 1008.0 |
| 20260506180803 | 11 | 308 | 1.6 | 3.2 | 0.08 | 0.33 | 0.33 | 97 | 1007.9 |
| 20260506175306 | 11 | 301 | 1.6 | 8.0 | 0.13 | 0.36 | 0.33 | 95 | 1007.9 |
| 20260506174804 | 12 | 280 | 1.6 | 8.0 | 0.10 | 0.33 | 0.33 | 97 | 1007.9 |
| 20260506174304 | 12 | 81 | 1.6 | 8.0 | 0.10 | 0.33 | 0.33 | 97 | 1007.9 |
| 20260506173803 | 12 | 271 | 0.0 | 3.2 | 0.13 | 0.36 | 0.33 | 97 | 1007.8 |
| 20260506173304 | 12 | 273 | 1.6 | 4.8 | 0.13 | 0.38 | 0.33 | 97 | 1007.7 |
| 20260506172306 | 12 | 36 | 0.0 | 3.2 | 0.10 | 0.41 | 0.30 | 97 | 1007.8 |
| 20260506171803 | 12 | 297 | 3.2 | 8.0 | 0.13 | 0.43 | 0.30 | 96 | 1007.8 |
| 20260506171304 | 12 | 288 | 3.2 | 8.0 | 0.08 | 0.41 | 0.25 | 97 | 1007.7 |
| 20260506170804 | 12 | 267 | 1.6 | 4.8 | 0.10 | 0.41 | 0.25 | 97 | 1007.7 |
| 20260506165804 | 12 | 205 | 1.6 | 4.8 | 0.13 | 0.38 | 0.23 | 96 | 1007.6 |
| 20260506165305 | 12 | 292 | 3.2 | 4.8 | 0.13 | 0.36 | 0.23 | 95 | 1007.6 |
| 20260506164304 | 12 | 285 | 0.0 | 4.8 | 0.15 | 0.36 | 0.23 | 95 | 1007.6 |
| 20260506163804 | 12 | 200 | 0.0 | 3.2 | 0.15 | 0.33 | 0.20 | 95 | 1007.3 |
| 20260506162804 | 12 | 288 | 1.6 | 3.2 | 0.15 | 0.33 | 0.20 | 95 | 1007.3 |
| 20260506162306 | 12 | 288 | 0.0 | 3.2 | 0.15 | 0.33 | 0.20 | 95 | 1007.3 |
| 20260506161803 | 12 | 288 | 1.6 | 3.2 | 0.15 | 0.33 | 0.18 | 95 | 1007.3 |
| 20260506161303 | 13 | 288 | 0.0 | 3.2 | 0.15 | 0.33 | 0.18 | 94 | 1007.3 |
| 20260506160803 | 13 | 286 | 1.6 | 3.2 | 0.15 | 0.30 | 0.15 | 93 | 1007.3 |
| 20260506160304 | 13 | 287 | 0.0 | 1.6 | 0.13 | 0.28 | 0.15 | 92 | 1007.3 |
| 20260506155807 | 13 | 287 | 0.0 | 1.6 | 0.10 | 0.25 | 0.13 | 91 | 1007.3 |
| 20260506155306 | 13 | 287 | 1.6 | 3.2 | 0.08 | 0.23 | 0.10 | 90 | 1007.3 |
| 20260506154303 | 13 | 287 | 0.0 | 1.6 | 0.05 | 0.23 | 0.08 | 91 | 1007.3 |
| 20260506153804 | 13 | 287 | 0.0 | 1.6 | 0.05 | 0.20 | 0.05 | 91 | 1007.3 |
| 20260506153304 | 13 | 287 | 0.0 | 1.6 | 0.05 | 0.20 | 0.05 | 90 | 1007.3 |
| 20260506152804 | 13 | 287 | 0.0 | 0.0 | 0.05 | 0.20 | 0.05 | 90 | 1007.3 |
| 20260506152305 | 13 | 287 | 0.0 | 3.2 | 0.03 | 0.18 | 0.05 | 90 | 1007.3 |
| 20260506151303 | 14 | 279 | 1.6 | 4.8 | 0.00 | 0.15 | 0.03 | 83 | 1007.1 |
| 20260506150804 | 14 | 276 | 1.6 | 3.2 | 0.00 | 0.15 | 0.03 | 83 | 1007.1 |
| 20260506150305 | 14 | 259 | 0.0 | 3.2 | 0.00 | 0.15 | 0.03 | 85 | 1007.1 |
| 20260506145804 | 14 | 259 | 0.0 | 1.6 | 0.00 | 0.15 | 0.03 | 85 | 1007.1 |
| 20260506145305 | 14 | 259 | 0.0 | 3.2 | 0.00 | 0.15 | 0.03 | 83 | 1006.7 |
| 20260506144804 | 14 | 259 | 0.0 | 1.6 | 0.00 | 0.15 | 0.03 | 84 | 1006.7 |
| 20260506144304 | 14 | 259 | 0.0 | 4.8 | 0.00 | 0.18 | 0.03 | 83 | 1006.7 |
| 20260506143803 | 15 | 273 | 1.6 | 8.0 | 0.00 | 0.18 | 0.03 | 83 | 1006.6 |
| 20260506143304 | 15 | 303 | 1.6 | 8.0 | 0.00 | 0.18 | 0.03 | 82 | 1006.6 |
| 20260506142803 | 15 | 316 | 1.6 | 4.8 | 0.00 | 0.18 | 0.03 | 80 | 1006.5 |
| 20260506142306 | 15 | 304 | 1.6 | 8.0 | 0.00 | 0.18 | 0.03 | 79 | 1006.5 |
| 20260506141804 | 15 | 327 | 1.6 | 8.0 | 0.00 | 0.18 | 0.03 | 78 | 1006.5 |
| 20260506141304 | 15 | 329 | 3.2 | 8.0 | 0.00 | 0.18 | 0.03 | 79 | 1006.5 |
| 20260506140804 | 16 | 296 | 1.6 | 16.1 | 0.00 | 0.18 | 0.03 | 76 | 1006.4 |
| 20260506140303 | 16 | 321 | 3.2 | 8.0 | 0.00 | 0.20 | 0.03 | 75 | 1006.4 |
| 20260506135306 | 16 | 315 | 3.2 | 12.9 | 0.00 | 0.20 | 0.03 | 72 | 1005.6 |
| 20260506134303 | 17 | 296 | 3.2 | 11.3 | 0.00 | 0.23 | 0.03 | 67 | 1005.6 |
| 20260506133803 | 18 | 318 | 3.2 | 9.7 | 0.00 | 0.23 | 0.03 | 66 | 1005.6 |
| 20260506133304 | 18 | 289 | 3.2 | 9.7 | 0.00 | 0.25 | 0.03 | 66 | 1005.6 |
| 20260506132804 | 18 | 330 | 1.6 | 8.0 | 0.00 | 0.28 | 0.03 | 65 | 1005.6 |
| 20260506131803 | 18 | 266 | 1.6 | 8.0 | 0.00 | 0.28 | 0.03 | 62 | 1005.6 |
| 20260506131304 | 18 | 295 | 3.2 | 8.0 | 0.00 | 0.28 | 0.03 | 62 | 1005.6 |
| 20260506130804 | 18 | 220 | 0.0 | 1.6 | 0.00 | 0.30 | 0.03 | 62 | 1005.5 |
| 20260506130304 | 18 | 220 | 0.0 | 4.8 | 0.00 | 0.30 | 0.03 | 59 | 1005.4 |
| 20260506125804 | 18 | 220 | 1.6 | 4.8 | 0.00 | 0.33 | 0.03 | 57 | 1005.4 |
| 20260506125305 | 18 | 220 | 1.6 | 3.2 | 0.00 | 0.51 | 0.03 | 60 | 1005.4 |
| 20260506124804 | 18 | 215 | 1.6 | 3.2 | 0.00 | 0.89 | 0.03 | 59 | 1005.3 |
| 20260506124304 | 18 | 214 | 1.6 | 4.8 | 0.00 | 0.99 | 0.03 | 56 | 1005.3 |
| 20260506123804 | 18 | 206 | 0.0 | 1.6 | 0.00 | 0.99 | 0.03 | 59 | 1005.3 |
| 20260506123303 | 18 | 168 | 0.0 | 3.2 | 0.00 | 0.99 | 0.03 | 59 | 1005.3 |
| 20260506122305 | 18 | 226 | 0.0 | 1.6 | 0.00 | 0.99 | 0.03 | 61 | 1005.4 |
| 20260506121303 | 19 | 226 | 0.0 | 1.6 | 0.00 | 0.99 | 0.03 | 56 | 1005.6 |
| 20260506120803 | 19 | 226 | 0.0 | 1.6 | 0.00 | 0.99 | 0.03 | 58 | 1005.6 |
| 20260506120304 | 19 | 233 | 1.6 | 3.2 | 0.00 | 0.99 | 0.03 | 56 | 1005.6 |
| 20260506115306 | 19 | 158 | 0.0 | 3.2 | 0.00 | 0.99 | 0.03 | 60 | 1005.6 |
| 20260506114304 | 19 | 109 | 0.0 | 4.8 | 0.00 | 0.99 | 0.03 | 55 | 1005.8 |
| 20260506113804 | 20 | 115 | 1.6 | 4.8 | 0.00 | 0.99 | 0.03 | 56 | 1005.8 |